Notices

What's New in latest Release from April 7th, 2021:

- Updated Glossary, including Speed of Maximum Gust, and Total Hourly Precipitation

- Updated national and regional climate services offices contacts and prices information

- Addition of station inventory lists for 1981-2010, 1971-2000, and 1961-1990 Normals.

If you haven't already, please take our survey and provide feedback about our website: https://eccc.sondage-survey.ca/f/LanguageSelection.aspx?s=442ca660-fcf1-47c0-95a9-59707d6fd709

Hourly Data Report for March 08, 2020

MIRAMICHI RCS
NEW BRUNSWICK
Current Station Operator: ECCC - MSC

47°00'34.000" N
65°27'54.000" W
33.00 m
8100989
71744
ACQ

Download Data

Hourly Data (March 2020)
Hourly Data Report for March 8, 2020
TIME
LST
Temp Definition
°C
Dew Point Definition
°C
Rel Hum Definition
%
Precip. Amount Definition
mm

Wind Dir Definition
10's deg

Wind Spd Definition
km/h
Visibility Definition
km
Stn Press Definition
kPa
Hmdx Definition


Wind Chill Definition


Weather Definition


00:00 -8.3 -15.6 56 LegendMM 31 8   101.41   -12 LegendNANA
01:00 -9.1 -17.1 52 LegendMM 31 7   101.40   -13 LegendNANA
02:00 -10.6 -17.6 56 LegendMM 29 6   101.36   -14 LegendNANA
03:00 -12.4 -17.6 65 LegendMM 26 8   101.29   -17 LegendNANA
04:00 -12.3 -17.4 65 LegendMM 26 6   101.24   -16 LegendNANA
05:00 -12.2 -17.6 64 LegendMM 26 9   101.22   -17 LegendNANA
06:00 -11.9 -17.5 63 LegendMM 25 8   101.20   -17 LegendNANA
07:00 -11.2 -16.7 64 LegendMM 26 7   101.20   -15 LegendNANA
08:00 -9.3 -16.2 57 LegendMM 25 10   101.22   -14 LegendNANA
09:00 -8.2 -13.4 66 LegendMM 24 10   101.26   -13 LegendNANA
10:00 -4.0 -11.6 55 LegendMM 25 10   101.25   -8 LegendNANA
11:00 -0.6 -8.7 54 LegendMM 30 18   101.24   -6 LegendNANA
12:00 0.3 -8.8 51 LegendMM 31 16   101.23     LegendNANA
13:00 1.5 -8.1 49 LegendMM 30 18   101.21     LegendNANA
14:00 1.6 -8.7 46 LegendMM 29 26   101.22     LegendNANA
15:00 1.8 -7.3 51 LegendMM 27 24   101.27     LegendNANA
16:00 2.3 -7.8 47 LegendMM 28 21   101.26     LegendNANA
17:00 2.8 -8.6 43 LegendMM 28 18   101.27     LegendNANA
18:00 1.9 -9.4 43 LegendMM 29 15   101.33     LegendNANA
19:00 0.3 -9.3 48 LegendMM 26 9   101.45     LegendNANA
20:00 -3.1 -10.0 59 LegendMM 21 3   101.53   -4 LegendNANA
21:00 -2.1 -9.9 55 LegendMM 27 9   101.58   -6 LegendNANA
22:00 -2.4 -10.0 56 LegendMM 26 5   101.65   -4 LegendNANA
23:00 -1.9 -10.3 53 LegendMM 33 4   101.70   -3 LegendNANA

Notes on Data Quality.

Legend

  • E = Estimated
  • M = Missing
  • NA = Not Available*
  • [empty] = Indicates an unobserved value
Date modified: